Weather History for Central Park, NY

Change the Weather History Date:

Friday, January 2, 2004

  Actual Average Record
Temperature  
Mean Temperature 42 °F 33 °F  
Max Temperature 48 °F 39 °F 68 °F (1876)
Min Temperature 37 °F 28 °F 2 °F (1918)
Degree Days  
Heating Degree Days 22 32  
Month to date heating degree days 64  
Since 1 July heating degree days 1749  
Cooling Degree Days 0 0  
Month to date cooling degree days 0  
Year to date cooling degree days 0  
Moisture  
Dew Point 35 °F    
Average Humidity 69    
Maximum Humidity 83    
Minimum Humidity 55    
Precipitation  
Precipitation 0.00 in 0.12 in 1.92 in (1925)
Month to date precipitation 0.24  
Year to date precipitation 0.24  
Snow  
Snow 0.00 in 0.20 in 11.50 in (1925)
Month to date snowfall 0.4  
Since 1 July snowfall 5.5  
Snow Depth -    
Sea Level Pressure  
Sea Level Pressure 30.15 in    
Wind  
Wind Speed 4 mph (ESE)    
Max Wind Speed 15 mph    
Max Gust Speed 23 mph    
Visibility 10 miles    
Events      
T = Trace of Precipitation, MM = Missing Value Source: NWS Daily Summary

Daily Weather History Graph

Daily Weather History Graph

Search for Another Location

Airport:

Trip Planner

Search our weather history database for the weather conditions in past years. The results will help you decide how hot, cold, wet, or windy it might be!

Date:

Astronomy

Jan. 02, 2004 Rise Set
Actual Time 7:20 AM EST 4:39 PM EST
Civil Twilight 6:49 AM EST 5:10 PM EST
Nautical Twilight 6:15 AM EST 5:44 PM EST
Astronomical Twilight 5:41 AM EST 6:17 PM EST
Moon 1:11 PM EST (1/2) 2:48 AM EST (1/2)
Length of Visible Light 10h 20m
Length of Day
9h 19m
Waxing Gibbous, 79% of the Moon is Illuminated
Jan 2
Waxing Gibbous
Jan 7
Full
Jan 14
Last Quarter
Jan 21
New
Jan 29
First Quarter

Hourly Weather History & Observations

Time (EST) Temp. Windchill Dew Point Humidity Pressure Visibility Wind Dir Wind Speed Gust Speed Precip Events Conditions
12:51 AM 37.4 °F 34.9 °F 26.6 °F 65% 30.28 in 10.0 mi North 3.5 mph - N/A   Mostly Cloudy
1:51 AM 41.0 °F 38.0 °F 26.6 °F 57% 30.27 in 10.0 mi ESE 4.6 mph - N/A   Overcast
2:51 AM 41.0 °F 35.2 °F 26.1 °F 55% 30.24 in 10.0 mi East 9.2 mph - N/A   Overcast
3:51 AM 41.0 °F 38.0 °F 26.6 °F 57% 30.24 in 10.0 mi ESE 4.6 mph - N/A   Overcast
5:51 AM 42.1 °F - 32.0 °F 67% 30.23 in 10.0 mi Calm Calm - N/A   Overcast
6:51 AM 44.1 °F 40.8 °F 33.1 °F 65% 30.19 in 10.0 mi Variable 5.8 mph - N/A   Overcast
7:51 AM 43.0 °F 38.8 °F 28.9 °F 58% 30.15 in 10.0 mi Variable 6.9 mph - 0.00 in   Overcast
8:51 AM 44.1 °F 40.1 °F 30.0 °F 58% 30.19 in 10.0 mi Variable 6.9 mph - N/A   Overcast
9:51 AM 45.0 °F 41.8 °F 37.9 °F 76% 30.18 in 10.0 mi South 5.8 mph - N/A   Overcast
10:51 AM 46.9 °F - 39.0 °F 74% 30.14 in 10.0 mi South 15.0 mph 23.0 mph N/A   Overcast
11:51 AM 46.0 °F 42.5 °F 39.0 °F 76% 30.10 in 10.0 mi Variable 6.9 mph - N/A   Overcast
12:51 PM 46.9 °F - 37.9 °F 71% 30.08 in 10.0 mi Variable 3.5 mph - N/A   Overcast
1:51 PM 48.0 °F - 37.9 °F 68% 30.07 in 10.0 mi Variable 4.6 mph - N/A   Overcast
2:51 PM 48.0 °F - 37.9 °F 68% 30.07 in 10.0 mi Calm Calm - N/A   Partly Cloudy
3:51 PM 46.4 °F - 37.4 °F 71% 30.08 in 10.0 mi Calm Calm - N/A   Partly Cloudy
4:51 PM 46.9 °F - 39.0 °F 74% 30.09 in 10.0 mi Calm Calm - N/A   Clear
5:51 PM 46.4 °F 44.3 °F 37.4 °F 71% 30.10 in 10.0 mi West 4.6 mph - N/A   Clear
6:51 PM 46.4 °F - 37.4 °F 71% 30.12 in 10.0 mi Calm Calm - N/A   Mostly Cloudy
7:51 PM 46.4 °F - 39.2 °F 76% 30.12 in 10.0 mi Calm Calm - N/A   Clear
8:51 PM 46.4 °F - 39.2 °F 76% 30.12 in 10.0 mi Calm Calm - N/A   Overcast
9:51 PM 46.0 °F 43.1 °F 41.0 °F 83% 30.10 in 10.0 mi East 5.8 mph - N/A   Overcast
10:51 PM 46.9 °F - 41.0 °F 80% 30.12 in 10.0 mi WNW 4.6 mph - N/A   Overcast
11:51 PM 46.9 °F - 41.0 °F 80% 30.11 in 10.0 mi Calm Calm - N/A   Overcast